This is the latest recevied weather packets stored in our database for station/object K0NV. If no packets are shown the sender has not sent any weather packets the latest 10 day(s).
| Time | Temp. | Humidity | Pressure | Rain* | Wind** | Luminosity | Snow |
|---|---|---|---|---|---|---|---|
| 1777906356 | 21.67° C | 56% | 1009.7 hPa | 0 mm | - | 718 W/m² | - |
| 1777906053 | 21.67° C | 57% | 1009.6 hPa | 0 mm | - | 703 W/m² | - |
| 1777905749 | 21.67° C | 58% | 1009.5 hPa | 0 mm | - | 685 W/m² | - |
| 1777905446 | 21.11° C | 56% | 1009.6 hPa | 0 mm | - | 652 W/m² | - |
| 1777905144 | 21.11° C | 57% | 1009.6 hPa | 0 mm | - | 603 W/m² | - |
| 1777904840 | 20.56° C | 56% | 1010 hPa | 0 mm | - | 566 W/m² | - |
| 1777904538 | 20.56° C | 57% | 1009.8 hPa | 0 mm | - | 498 W/m² | - |
| 1777904235 | 20.56° C | 57% | 1009.8 hPa | 0 mm | - | 468 W/m² | - |
| 1777903932 | 20.56° C | 58% | 1010.1 hPa | 0 mm | - | 423 W/m² | - |
| 1777903629 | 20.56° C | 58% | 1010.1 hPa | 0 mm | - | 384 W/m² | - |
| 1777903324 | 20.56° C | 58% | 1010.3 hPa | 0 mm | - | 378 W/m² | - |
| 1777903021 | 20° C | 59% | 1010.3 hPa | 0 mm | - | 373 W/m² | - |
| 1777902717 | 20° C | 59% | 1010.1 hPa | 0 mm | - | 351 W/m² | - |
| 1777902415 | 20° C | 58% | 1010.2 hPa | 0 mm | - | 335 W/m² | - |
| 1777902111 | 20° C | 59% | 1010.1 hPa | 0 mm | - | 320 W/m² | - |
| 1777901810 | 19.44° C | 59% | 1010.2 hPa | 0 mm | - | 300 W/m² | - |
| 1777901507 | 19.44° C | 59% | 1010.1 hPa | 0 mm | - | 291 W/m² | - |
| 1777901204 | 18.89° C | 61% | 1010.3 hPa | 0 mm | - | 267 W/m² | - |
| 1777900902 | 18.89° C | 60% | 1010.1 hPa | 0 mm | - | 258 W/m² | - |
| 1777900599 | 18.89° C | 61% | 1010.2 hPa | 0 mm | - | 230 W/m² | - |
| 1777900296 | 18.89° C | 62% | 1010.5 hPa | 0 mm | - | 218 W/m² | - |
| 1777899992 | 18.89° C | 61% | 1010.4 hPa | 0 mm | - | 358 W/m² | - |
| 1777899689 | 18.33° C | 62% | 1010.4 hPa | 0 mm | - | 181 W/m² | - |
| 1777899387 | 18.33° C | 62% | 1010.4 hPa | 0 mm | - | 168 W/m² | - |
| 1777899084 | 18.33° C | 63% | 1010.7 hPa | 0 mm | - | 150 W/m² | - |
* Rain latest hour (hover to see other rain measurements)
** Current wind speed in m/s (hover to see current wind gust speed)